Weather in Varena

Lithuania     54°12′48″N   24°34′42″E
temp.,
°C
wind,
m/s
gust,
m/s
humid.,
%
clouds,
%
prec.,
mm/h
press.,
hPa
HPBL,
m
27 february, sat
sat2723:00+3w5118699 0.0 1018774
02:00+3wnw5119095 0.0 1018619
05:00+2wnw4119487 0.0 1017511
08:00+2nw5139076 0.0 1019730
11:00+3nnw6118271 0.0 1021817
14:00+4nnw6117581 0.0 10241039
17:00+4nw5117480 0.0 10241171
20:00+1nnw4118462 0.0 1026507
28 february, sun
sun2823:00−1nw39900 0.0 1027304
02:00−1nw39957 0.0 1028300
05:000nw41091100 0.0 1027436
08:00+1wnw4119497 0.1 1026498
11:00+5wnw51273100 0.0 1025671
14:00+6nw6107297 0.0 10241082
17:00+4nw41292100 0.8 1023697
20:00+3nnw41092100 0.9 1026654
1 march, mon
mon123:00+3nnw3794100 0.0 1028349
02:000nw239769 0.1 103066
05:00−1wnw239823 0.0 102987
08:00+1wnw379639 0.0 1030283
11:00+4nw368489 0.0 1030404
14:00+8wnw367347 0.0 1030600
17:00+6w37810 0.0 1029320
20:00+5w4138534 0.0 1028463
2 march, tue
tue223:00+3w4149051 0.0 1028614
02:00+2nw4119442 0.0 1028494
05:00+2nw4795100 0.0 1028365
08:00+1wnw3596100 0.0 1029261
11:00+4w3687100 0.0 1029324
14:00+8w477055 0.0 1028501
17:00+7wnw38770 0.0 1027496
20:00+4wnw310930 0.0 1028418
3 march, wed
wed323:00+2nw479658 0.0 1029323
02:00+2nw359578 0.0 1029295
05:00+2nw2494100 0.0 1029308
08:00+1wnw2495100 0.0 1028296
11:00+2w2291100 0.0 1028306
14:00+4wsw2283100 0.0 1027411
17:00+4ssw138348 0.0 1025228
20:00+1sw229424 0.0 102455